Flag for U.S.A. Weather past 2 weeks in Newark, New Jersey, U.S.A.

Now
86 °F

Scattered clouds.


Feels Like: 86 °F
Forecast: 70 / 88 °F
Wind: 8 mph from Southeast

Location: Newark International Airport

Current Time: Aug 2, 2015 at 6:41:43 PM

Latest Report: Aug 2, 2015 at 5:51 PM


Visibility: 10 mi

Pressure: 29.87 "Hg

Humidity: 43%

Dew point: 61 °F

Location of NewarkLocation

Historic Weather in Newark — Graph

°F

Newark temperature yesterday

Maximum temperature yesterday: 91 °F (at 2:51 PM)
Minimum temperature yesterday: 73 °F (at 5:51 AM)
Average temperature yesterday: 82 °F

Past Weeks' High & Low Weather Summary

 TemperatureHumidityPressure
High98 °F (Jul 19, 3:51 PM)94% (Jul 31, 1:51 AM)30.03 "Hg (Jul 31, 1:51 AM)
Low66 °F (Jul 25, 5:51 AM)22% (Jul 24, 3:51 PM)29.57 "Hg (Jul 21, 5:51 PM)
Average82 °F53%29.86 "Hg
* Reported Jul 18 4:51 PM — Aug 2 4:51 PM, Newark, Weather by CustomWeather, © 2015

Note: Actual official high and low records may vary slightly from our data, if they occured in-between our weather recording intervals... More about our weather records

Advertising

Newark weather history for previous 24 hours

 ConditionsComfort  
Time TempWeatherWind HumidityBarometerVisibility
4:51 PM
Sun, Aug 2
86 °FBroken clouds.10 mph40%29.87 "Hg10 mi
3:51 PM87 °FPartly sunny.12 mph40%29.88 "Hg10 mi
2:51 PM91 °FPartly sunny.12 mph23%29.88 "Hg10 mi
1:51 PM90 °FPartly sunny.13 mph24%29.89 "Hg10 mi
12:51 PM88 °FBroken clouds.5 mph27%29.91 "Hg10 mi
11:51 AM87 °FScattered clouds.9 mph29%29.92 "Hg10 mi
10:51 AM86 °FScattered clouds.8 mph32%29.93 "Hg10 mi
9:51 AM81 °FPassing clouds.No wind42%29.92 "Hg10 mi
8:51 AM79 °FPassing clouds.No wind47%29.92 "Hg10 mi
7:51 AM75 °FSunny.No wind55%29.90 "Hg10 mi
6:51 AM71 °FClear.3 mph63%29.90 "Hg10 mi
5:51 AM69 °FPassing clouds.3 mph68%29.88 "Hg10 mi
4:51 AM71 °FPassing clouds.3 mph63%29.87 "Hg10 mi
3:51 AM72 °FClear.5 mph61%29.87 "Hg10 mi
2:51 AM73 °FPassing clouds.6 mph62%29.87 "Hg10 mi
1:51 AM75 °FPassing clouds.3 mph55%29.86 "Hg10 mi
12:51 AM77 °FPassing clouds.6 mph50%29.86 "Hg10 mi
11:51 PM
Sat, Aug 1
77 °FPassing clouds.3 mph50%29.85 "Hg10 mi
10:51 PM78 °FPassing clouds.8 mph48%29.85 "Hg10 mi
9:51 PM80 °FPassing clouds.7 mph49%29.84 "Hg10 mi
8:51 PM83 °FScattered clouds.8 mph41%29.81 "Hg10 mi
7:51 PM84 °FScattered clouds.9 mph40%29.80 "Hg10 mi
6:51 PM87 °FScattered clouds.14 mph35%29.78 "Hg10 mi
Weather by CustomWeather, © 2015

See weather overviewHow to use our weather pages